User: anonymous   Login
Location: Lichtensteig
(47.3376°N, 9.0841°E)
Time: 12:45:47
(UTC+00:00)
Language:

COSMO-SKYMED 1 - Orbit

View from above orbital plane
View from above orbital plane
View from above satellite
View from above satellite

Ground track
Ground track

The orbit data is extracted from the following two-line orbital elements,

1 31598U 07023A   21132.25410115 -.00000685  00000-0 -79461-4 0  9998
2 31598  97.8896 316.6602 0001706  96.9681 263.1681 14.82154717753532
Epoch (UTC): 12 May 2021 06:05:54
Eccentricity: 0.0001706
inclination: 97.8896°
perigee height: 621 km
apogee height: 624 km
right ascension of ascending node: 316.6602°
argument of perigee: 96.9681°
revolutions per day: 14.82154717
mean anomaly at epoch: 263.1681°
orbit number at epoch: 75353

The dashed part of the orbit path shows where the satellite is in the earth's shadow,  

DLR